STARLINK-34048, 63816

Orbit data source: Space-Track

STARLINK-34048, 63816 is a payload satellite owned by SpaceX/Seattle (US) in LEO that was launched on Sun, 04 May 2025 UTC via an FALCON 9 launch vehicle from the Air Force Eastern Test Range (AFETR). Payload-class satellites include a variety of spacecraft equipped with specific instruments for various scientific and technological missions. These include communications satellites like Starlink; space stations such as the ISS; scientific satellites like the Hubble; Earth observation satellites from companies like Planet Labs, Umbra, and HawkEye 360; GPS; miniature CubeSats for education and research; and military/defense satellites.

Loading next visibility...
Identifier
63816, 2025-092N
Orbit
LEO
Country
Flag of USUS
Related business
Manufacturer
SpaceX/Seattle
Mission
Operational Commercial Communications
Bus & Motor
STARLINK V2MO, Unknown motor
Mass
575 kg wet, ~530 kg dry
Launch date (UTC)
2025-05-04 (10 months ago)
Launch vehicle
FALCON 9
Launch site
Air Force Eastern Test Range (AFETR)
Object type
Payload
Rocket body
Debris
Shape & HBR
Box + 2 Pan, 17.7 m
Radar Cross Section
36.964 m², Large (>1 m²)

Expand to show TLE details & history
Last TLE update: 7 hours ago

TLE from 7 hours ago
0 STARLINK-34048
1 63816U 25092N   26072.56516409 -.00008832  00000-0 -31173-3 0  9996
2 63816  42.9985 150.9774 0001444 266.0002  94.0685 15.27585579 49251
Epoch: 2026-03-13T13:33Z
TLE epoch observation values (Epoch: 2026-03-13T13:33:50.177Z)
Latitude
0.00002°
Longitude
136.31947°
Altitude
482.878 km
Speed
7.626 km/s
True Right ascension
10h 03m 54s
True Declination
0° 00' 00"
Sunlit
Object was in full shadow at epoch
Visualization orbit readout
Latitude
Unknown
Longitude
Unknown
Altitude
Unknown
Speed
Unknown
Apparent Right ascension
Unknown
Apparent Declination
Unknown
Sunlit
N/A
Visualization observer readout
Local Sidereal Time
00:36:47
Azimuth
Unknown
Elevation
Unknown
Doppler factor
Unknown
Orbital elements
Apogee altitude
485.969 km
Perigee altitude
483.987 km
Semi-major axis
6,863.115 km
Eccentricity
0.00014
Inclination
42.9985°
RAAN
150.9774°
Arg. of periapsis
266.0002°
True anomaly
94.08501°
Mean anomaly
94.0685°
Eccentric anomaly
94.07675°
Mean motion
3.81734 °/min
Orbital period
94.31 mins
BSTAR
-0.00031173
Loading maneuver chart data...
Computing Atmospheric mass density...
Loading historical data...
Loading historical data...
Loading historical data...
Loading historical data...
Loading historical data...
Loading historical data...
Loading historical data...

Documentation

Showing up to 5 results
|